Minneapolis, MN

12:21 AM CDT on May 23, 2017 (GMT -0500)
Minneapolis-Saint Paul International

Weather History for KMSP - August, 2014

Change the Weather History Date:

Thursday, August 28, 2014

  Actual Average Record
Temperature  
Mean Temperature 67 °F 69 °F  
Max Temperature 72 °F 78 °F 94 °F (1899)
Min Temperature 61 °F 60 °F 42 °F (1934)
Degree Days  
Heating Degree Days 0 1  
Month to date heating degree days 0 7  
Since 1 June heating degree days 28 56  
Since 1 July heating degree days 7 12  
Cooling Degree Days 2 5  
Month to date cooling degree days 242 190  
Year to date cooling degree days 673 666  
Since 1 June cooling degree days 621 624  
Growing Degree Days 16 (Base 50)    
Moisture  
Dew Point 61 °F    
Average Humidity 80    
Maximum Humidity 93    
Minimum Humidity 66    
Precipitation  
Precipitation 0.02 in 0.12 in 1.11 in (1950)
Month to date precipitation 1.45 3.94  
Year to date precipitation 29.55 21.81  
Snow  
Snow 0.00 in 0.00 in 0.00 in ()
Month to date snowfall 0.0 0.0  
Since 1 June snowfall 0.0 0.0  
Since 1 July snowfall 0.0 0.0  
Snow Depth 0.00 in    
Sea Level Pressure  
Sea Level Pressure 30.01 in    
Wind  
Wind Speed 11 mph (ESE)    
Max Wind Speed 18 mph    
Max Gust Speed 22 mph    
Visibility 10 miles    
Events Rain    
T = Trace of Precipitation, MM = Missing Value Source: NWS Daily Summary

Daily Weather History Graph

Daily Weather History Graph

Search for Another Location

Airport or City:

Trip Planner

Search our weather history database for the weather conditions in past years. The results will help you decide how hot, cold, wet, or windy it might be!

Date:

Astronomy

Aug. 28, 2014 Rise Set
Actual Time 6:30 AM CDT 7:56 PM CDT
Civil Twilight 5:59 AM CDT 8:27 PM CDT
Nautical Twilight 5:22 AM CDT 9:04 PM CDT
Astronomical Twilight 4:43 AM CDT 9:43 PM CDT
Moon 9:32 AM CDT (8/28) 9:10 PM CDT (8/28)
Length of Visible Light 14h 27m
Length of Day
13h 26m
Waxing Crescent, 9% of the Moon is Illuminated
Aug 28
Waxing Crescent
Sep 2
First Quarter
Sep 8
Full
Sep 15
Last Quarter
Sep 24
New

Hourly Weather History & Observations

Time (CDT) Temp. Dew Point Humidity Pressure Visibility Wind Dir Wind Speed Gust Speed Precip Events Conditions
12:53 AM 64.9 °F 57.9 °F 78% 30.13 in 10.0 mi East 8.1 mph - N/A   Scattered Clouds
1:53 AM 64.0 °F 57.9 °F 80% 30.12 in 10.0 mi ESE 6.9 mph - N/A   Scattered Clouds
2:53 AM 63.0 °F 57.0 °F 81% 30.11 in 10.0 mi East 8.1 mph - N/A   Scattered Clouds
3:53 AM 63.0 °F 55.9 °F 78% 30.09 in 10.0 mi East 8.1 mph - N/A   Scattered Clouds
4:53 AM 62.1 °F 55.9 °F 80% 30.08 in 10.0 mi ESE 10.4 mph - N/A   Scattered Clouds
5:53 AM 62.1 °F 55.9 °F 80% 30.07 in 10.0 mi ESE 9.2 mph - N/A   Scattered Clouds
6:53 AM 62.1 °F 57.0 °F 84% 30.08 in 10.0 mi ESE 9.2 mph - N/A   Mostly Cloudy
7:53 AM 64.0 °F 57.0 °F 78% 30.08 in 10.0 mi SE 6.9 mph - N/A   Mostly Cloudy
8:53 AM 66.0 °F 55.9 °F 70% 30.07 in 10.0 mi ESE 9.2 mph - N/A   Mostly Cloudy
9:53 AM 69.1 °F 57.9 °F 68% 30.07 in 10.0 mi SE 11.5 mph - N/A   Mostly Cloudy
10:53 AM 70.0 °F 59.0 °F 68% 30.06 in 10.0 mi ESE 12.7 mph - N/A   Mostly Cloudy
11:53 AM 72.0 °F 60.1 °F 66% 30.05 in 10.0 mi SE 11.5 mph - N/A   Mostly Cloudy
12:53 PM 72.0 °F 61.0 °F 68% 30.03 in 10.0 mi SE 10.4 mph - N/A   Overcast
1:53 PM 69.1 °F 62.1 °F 78% 30.01 in 8.0 mi SE 12.7 mph - 0.00 in Rain Light Rain
2:53 PM 68.0 °F 64.9 °F 90% 29.99 in 9.0 mi ESE 10.4 mph - 0.02 in Rain Light Rain
3:07 PM 69.1 °F 64.9 °F 87% 29.99 in 10.0 mi ESE 12.7 mph - 0.00 in   Overcast
3:17 PM 69.1 °F 64.9 °F 87% 29.99 in 10.0 mi ESE 11.5 mph - 0.00 in   Overcast
3:53 PM 69.1 °F 64.9 °F 87% 29.98 in 10.0 mi ESE 12.7 mph - 0.00 in   Overcast
4:30 PM 69.1 °F 64.0 °F 84% 29.97 in 10.0 mi ESE 12.7 mph - N/A   Overcast
4:53 PM 69.1 °F 64.0 °F 84% 29.96 in 10.0 mi ESE 10.4 mph - N/A   Overcast
5:53 PM 69.1 °F 64.9 °F 87% 29.96 in 10.0 mi ESE 12.7 mph - 0.00 in   Overcast
6:40 PM 68.0 °F 64.9 °F 90% 29.95 in 10.0 mi ESE 13.8 mph - N/A   Overcast
6:53 PM 68.0 °F 64.9 °F 90% 29.95 in 10.0 mi ESE 13.8 mph - N/A   Overcast
7:07 PM 68.0 °F 64.4 °F 88% 29.95 in 10.0 mi ESE 11.5 mph - N/A   Overcast
7:53 PM 66.9 °F 64.0 °F 90% 29.94 in 7.0 mi ESE 15.0 mph 19.6 mph 0.00 in   Light Drizzle
8:53 PM 66.9 °F 64.0 °F 90% 29.92 in 10.0 mi ESE 12.7 mph - 0.00 in   Overcast
9:53 PM 68.0 °F 64.9 °F 90% 29.91 in 10.0 mi ESE 12.7 mph - N/A   Overcast
10:03 PM 68.0 °F 64.0 °F 87% 29.92 in 10.0 mi ESE 11.5 mph - N/A   Overcast
10:53 PM 66.9 °F 64.0 °F 90% 29.91 in 10.0 mi ESE 10.4 mph - N/A   Overcast
11:53 PM 66.9 °F 64.0 °F 90% 29.89 in 10.0 mi ESE 12.7 mph - N/A   Overcast